Theta_e
315 318 320 322 322 322 321 320 320 320 320 324 330 332 333 334 330 323 320 322 325 327 330 330 332 333 334 334 334 334 334 333 332 332 331 330 330 330 330 330 329 327 326 327 327 326 325 325 325 326 326 326 327 328 329 329 328 327 326 327 328 329 331 324 323 328 330 331 333 332 332 332 330 330 331 331 330 328 325 325 327 325 323 325 323 322 335
315 318 320 321 323 322 321 320 319 319 319 322 329 333 334 333 330 325 324 325 327 330 332 332 333 334 335 336 335 334 333 332 332 332 330 330 329 328 330 330 330 330 328 327 327 326 324 324 326 327 327 328 328 329 331 331 329 326 328 329 327 328 330 327 325 327 327 326 329 328 329 331 329 331 333 332 332 332 331 330 328 324 325 326 321 322 336
314 318 319 321 323 322 321 321 320 319 319 321 327 332 334 334 331 329 327 327 329 331 333 333 334 335 336 337 335 333 332 331 331 331 330 330 330 330 330 330 331 331 329 328 328 327 325 326 326 327 327 328 329 331 332 330 329 332 334 333 328 330 334 331 326 324 322 322 324 324 326 329 330 332 332 333 333 332 330 328 324 323 328 329 322 324 336
314 318 319 321 322 322 322 321 320 319 320 321 326 331 335 336 334 333 332 331 332 333 333 334 335 336 338 338 335 332 332 331 331 331 331 330 330 330 331 330 330 330 330 330 329 328 328 329 328 328 329 329 330 333 332 329 335 340 335 331 332 335 337 338 333 329 326 325 327 330 330 328 327 329 331 332 333 334 331 326 323 325 327 327 326 330 334
314 317 319 320 322 323 322 321 320 320 319 322 327 332 334 336 335 335 335 335 335 335 336 336 336 337 339 338 335 332 332 330 330 331 330 330 330 330 329 330 330 330 331 331 329 329 331 329 330 330 330 330 332 333 335 334 339 340 335 333 336 334 332 335 338 333 332 332 332 334 333 329 327 328 330 331 333 333 330 325 326 329 324 322 331 335 332
315 317 319 319 321 322 322 321 320 320 320 322 328 334 335 335 335 334 334 335 335 335 336 336 337 338 339 337 335 333 332 331 331 331 331 330 330 330 330 329 330 330 331 331 330 332 331 329 331 332 331 332 331 331 334 334 336 339 336 334 338 333 328 332 333 331 331 333 332 333 334 331 331 330 329 331 331 331 329 327 329 332 324 324 334 336 333
316 317 319 319 321 322 322 321 321 320 319 321 325 329 332 333 335 335 334 336 336 335 335 336 336 336 337 337 335 334 332 331 331 331 331 331 329 330 331 329 329 330 330 331 331 331 329 329 331 332 332 333 332 331 330 330 334 337 333 332 336 334 331 333 332 330 332 333 331 333 333 331 331 332 332 332 331 331 331 331 333 334 329 330 334 335 336
317 318 318 319 320 321 322 322 321 320 320 320 322 324 326 330 333 334 335 337 336 335 335 336 335 334 335 335 335 333 332 330 330 331 331 330 330 330 330 330 329 329 330 330 330 329 329 329 330 331 331 331 331 331 330 329 332 332 331 333 334 332 332 337 335 327 328 332 332 332 332 331 331 331 332 333 332 332 331 332 334 332 332 333 335 334 337
318 319 319 319 320 321 321 321 322 321 320 320 322 322 323 326 329 331 334 338 335 335 335 333 333 333 334 334 334 334 333 332 331 330 329 330 330 329 329 331 330 330 330 330 329 329 330 330 330 330 330 329 329 329 329 328 331 331 331 333 332 331 333 336 331 324 324 331 331 330 331 331 328 329 331 332 331 331 331 333 335 333 333 334 332 332 336
319 319 319 319 320 321 321 321 321 322 321 320 320 320 321 324 327 328 332 339 335 334 334 332 333 333 332 333 334 333 333 333 333 331 330 330 330 330 330 331 332 332 331 330 330 330 330 329 329 329 328 328 328 328 327 327 329 332 332 331 333 333 331 330 328 322 323 329 330 330 329 326 323 328 332 333 334 334 334 335 337 337 336 334 332 335 341
319 319 319 319 320 320 321 321 321 322 322 321 320 318 318 322 326 328 333 339 334 332 333 332 331 332 332 332 332 333 333 334 333 332 331 330 330 330 331 332 332 331 329 330 329 329 329 328 328 327 328 328 328 327 327 328 329 331 332 331 333 334 331 330 329 323 323 329 331 329 324 321 324 332 336 335 336 336 334 336 336 337 337 336 337 340 343
319 320 320 319 320 320 321 321 321 321 321 322 320 319 318 320 325 329 334 337 334 331 332 331 331 332 333 332 331 332 332 332 333 332 332 332 331 330 332 333 333 330 329 329 329 328 329 329 328 328 328 327 328 328 328 329 330 330 331 331 333 333 332 331 331 326 325 329 328 323 321 325 332 336 335 334 335 335 337 338 338 338 338 338 338 339 341
320 320 320 319 319 320 320 321 321 320 321 321 322 320 318 318 324 329 332 334 333 330 331 332 331 331 332 331 331 332 332 331 333 333 333 334 332 332 332 333 332 331 330 330 330 330 332 332 332 331 329 329 329 329 329 328 328 329 330 331 332 332 331 331 331 330 327 326 323 322 325 333 337 335 334 334 334 335 335 334 336 337 337 338 338 338 341
320 320 320 320 320 320 321 321 321 321 320 320 321 322 320 319 322 326 329 332 332 330 331 332 330 329 331 331 330 331 332 332 332 333 333 333 333 332 331 331 331 330 328 330 334 334 333 333 331 330 329 329 328 327 328 328 329 330 330 331 332 333 332 330 329 329 327 324 322 325 329 331 333 335 335 335 335 336 334 333 336 338 337 337 339 339 340
321 321 320 320 320 320 320 321 321 321 320 319 321 322 321 320 320 323 328 331 332 330 331 330 328 328 330 331 330 330 331 332 332 333 333 333 334 332 331 331 330 329 329 332 335 335 333 330 328 325 326 328 327 326 327 328 329 330 331 332 331 333 335 333 328 328 329 324 323 326 325 325 332 337 336 335 335 337 336 333 335 338 336 337 338 339 339
321 321 321 320 320 320 320 320 321 321 320 318 319 321 322 321 320 321 326 330 332 331 330 328 326 328 330 331 331 330 331 332 332 333 332 333 333 332 331 331 330 329 332 334 334 334 331 330 327 324 325 330 328 326 327 328 327 328 331 332 330 330 335 334 329 328 328 324 323 323 323 328 337 338 334 334 334 334 334 330 331 337 337 336 338 339 338
321 321 321 321 320 320 320 320 321 322 320 318 318 320 322 321 320 320 325 329 332 331 329 327 326 328 330 330 330 330 330 330 332 334 334 332 332 331 331 332 331 331 333 333 333 333 330 330 329 326 327 333 333 328 329 328 325 325 328 330 330 330 332 331 326 325 326 325 323 322 326 334 338 335 333 334 333 334 333 327 328 337 337 335 338 339 337
320 321 322 321 320 320 320 321 321 322 320 317 316 319 321 322 321 320 324 329 332 330 328 327 326 328 330 329 329 329 329 329 330 333 333 331 331 330 331 332 332 331 332 333 333 333 330 331 332 328 328 334 335 331 329 327 325 327 330 331 331 331 331 330 326 324 325 324 321 322 330 337 336 333 334 334 332 332 329 326 331 338 336 335 337 337 336
319 320 321 321 320 320 320 320 321 322 321 318 316 318 319 321 322 321 322 328 331 329 328 328 326 328 329 328 327 328 328 329 329 331 331 331 331 329 330 331 332 332 333 332 332 333 331 330 332 331 330 332 335 334 332 331 331 332 333 331 329 329 329 328 326 325 326 326 322 322 329 337 336 333 334 333 331 330 329 332 337 338 336 336 337 336 336
317 318 320 321 321 320 320 320 321 322 322 319 317 317 318 319 321 321 322 324 327 329 330 328 327 327 327 327 327 327 328 330 330 330 330 330 329 330 332 332 331 333 334 332 330 331 329 329 331 333 330 332 335 336 333 335 336 336 334 334 332 330 326 323 325 328 326 325 324 323 328 336 336 333 334 333 333 333 334 336 338 337 336 336 335 335 335
316 315 316 319 321 320 320 320 321 322 322 320 318 318 318 317 319 321 321 322 324 329 330 327 325 325 324 325 325 325 327 328 328 329 331 329 329 331 333 333 331 333 335 333 331 332 332 330 331 331 331 332 335 335 333 334 336 337 337 336 334 333 328 325 329 332 327 323 326 330 333 336 334 334 336 336 334 335 336 336 336 337 335 335 335 335 334
314 313 313 316 320 321 320 320 321 322 322 320 319 318 318 317 317 319 321 322 322 325 327 324 323 323 322 322 322 324 326 327 326 326 328 329 329 330 331 333 332 331 333 332 332 333 333 332 332 331 331 331 332 335 335 333 332 335 337 333 332 336 336 334 336 337 333 331 335 337 337 336 334 335 338 337 334 334 334 334 336 336 335 335 335 334 333
312 310 310 314 319 320 320 319 320 322 323 321 319 319 319 319 318 318 320 322 324 324 323 322 324 325 324 323 323 325 326 326 325 324 324 327 330 329 329 331 330 328 329 330 330 333 333 333 333 331 330 331 331 332 333 331 331 336 336 332 333 336 336 337 339 339 336 336 338 337 337 336 335 334 335 336 334 332 331 333 335 335 335 334 334 333 332
308 308 310 313 317 319 320 319 320 321 322 321 320 319 320 319 318 317 319 324 327 328 326 326 327 328 326 324 323 324 324 325 325 323 322 324 328 329 329 327 326 329 330 327 326 329 330 331 332 330 330 333 331 329 328 328 331 336 335 333 335 335 333 336 340 338 334 335 337 337 337 336 336 334 335 335 334 333 332 332 333 334 333 333 332 332 330
306 307 310 312 315 318 319 319 319 321 322 321 320 319 320 320 319 318 319 324 326 327 328 328 327 326 324 323 323 324 323 324 325 324 322 323 324 327 328 326 324 326 327 325 325 328 329 330 330 329 330 333 330 328 330 331 332 335 334 333 336 335 334 335 338 337 337 338 338 337 335 336 336 335 334 333 333 334 335 333 332 333 332 331 331 330 329
305 308 310 312 313 316 318 319 319 320 321 321 320 320 320 320 319 318 318 322 324 326 327 328 326 325 323 323 323 323 324 324 324 324 324 324 323 324 324 324 324 325 324 324 326 328 329 329 329 328 329 331 329 329 332 333 333 334 334 335 336 335 333 336 337 337 337 337 336 336 334 334 335 335 334 333 332 333 333 333 332 331 331 330 330 329 329
307 309 311 310 310 312 316 319 319 320 321 321 319 319 321 321 320 319 319 321 325 328 328 327 326 325 323 322 323 323 323 323 324 324 324 324 324 323 322 322 324 325 325 326 327 328 329 329 328 327 328 330 330 329 332 334 334 333 334 335 334 333 335 337 336 334 334 334 335 336 335 333 333 333 333 334 333 332 332 332 331 330 330 330 330 330 329
308 310 310 310 309 309 312 316 319 320 321 320 320 320 321 321 320 319 319 321 324 326 327 326 325 324 323 323 323 323 323 324 325 326 326 325 323 322 322 322 324 325 325 326 327 328 328 328 328 328 329 329 328 329 333 333 332 331 333 334 334 335 337 337 333 333 335 336 336 336 337 335 334 333 332 332 333 332 332 331 331 331 330 330 330 330 330
310 311 311 311 310 308 309 313 318 319 320 320 320 320 320 321 321 320 320 321 322 323 325 325 325 325 326 324 322 323 324 325 326 327 328 326 323 322 322 323 325 324 324 326 326 327 328 328 328 329 330 329 327 329 331 330 329 331 335 337 336 336 337 337 335 336 336 335 335 336 337 336 335 333 332 332 332 332 331 331 331 331 331 330 330 330 330
309 310 310 309 308 307 307 311 316 319 320 319 319 319 321 323 321 319 320 322 322 322 323 325 326 325 325 322 322 323 325 325 326 328 327 326 324 323 324 325 325 325 325 325 325 326 327 328 329 329 330 329 329 329 330 329 329 333 337 337 336 335 335 335 335 334 335 336 336 335 335 335 334 333 332 332 332 332 331 331 331 331 330 330 330 331 330
308 308 308 307 306 306 305 308 314 318 319 318 317 318 322 326 324 321 320 321 321 320 322 325 326 327 326 324 322 323 324 325 327 328 327 326 325 324 324 325 325 325 324 326 326 327 327 327 329 330 331 330 329 330 330 329 329 333 337 339 338 337 337 335 332 331 333 335 335 333 333 334 333 332 332 332 332 332 332 331 331 331 330 330 331 331 331
308 308 307 306 306 306 306 307 312 317 318 318 318 318 320 323 324 322 321 320 318 318 321 325 327 327 327 325 322 323 324 326 327 327 327 326 325 325 324 324 325 326 325 325 327 327 328 328 329 330 332 331 331 330 330 329 330 333 338 339 338 337 338 336 332 331 332 333 333 333 333 333 333 333 333 332 331 332 332 332 332 330 329 330 331 331 331
307 307 306 305 306 307 307 308 311 315 317 317 318 318 317 318 319 320 321 319 317 316 320 325 327 327 326 324 323 324 325 327 327 326 327 327 326 325 325 324 326 327 325 325 327 328 328 329 329 330 331 332 332 331 330 330 331 335 338 337 337 336 335 335 333 333 333 333 333 334 334 333 334 334 333 331 331 332 332 332 331 331 330 329 330 330 330
305 304 304 304 305 307 308 309 310 313 316 317 316 315 315 316 317 317 316 316 315 317 321 325 328 327 325 324 324 324 325 327 328 328 328 327 325 325 326 325 326 326 325 325 327 328 327 328 330 330 331 332 332 331 330 332 336 337 336 336 336 335 334 334 334 334 334 333 334 334 334 333 333 332 332 332 331 331 331 331 330 330 330 329 328 329 330
303 303 303 304 305 307 309 310 310 312 313 313 313 312 313 313 313 313 312 312 316 323 326 326 327 327 325 324 325 324 324 326 329 328 328 328 325 325 327 327 326 327 327 326 326 327 328 330 329 329 331 332 331 330 330 332 337 339 338 337 335 335 335 335 335 334 333 333 332 332 331 330 331 332 331 331 331 331 331 331 330 329 329 329 329 329 329
303 304 304 304 304 306 307 308 309 310 311 311 311 311 311 310 310 311 312 314 318 325 329 327 326 327 325 325 325 325 324 326 329 328 327 327 327 327 327 327 328 329 328 327 326 327 329 329 328 328 329 330 330 331 332 333 337 339 338 336 335 335 335 335 333 333 333 332 331 331 331 331 332 333 332 331 331 331 331 331 330 330 330 330 330 330 330
303 304 304 304 304 305 305 305 306 308 309 310 311 313 312 311 312 315 317 317 319 321 324 326 327 327 327 326 326 324 324 326 328 328 328 327 329 328 326 326 329 329 328 327 328 329 330 329 327 327 329 330 331 335 335 334 338 341 338 335 336 336 334 332 332 333 333 332 332 332 331 331 332 332 331 331 331 331 331 331 330 330 330 329 330 329 329
304 304 304 305 305 307 309 308 305 305 307 310 314 317 317 317 319 320 320 321 322 322 323 325 325 326 327 327 325 324 324 326 327 328 328 328 328 328 327 328 329 328 327 329 330 329 329 328 327 327 329 330 333 335 332 329 334 341 338 332 332 332 330 329 332 333 333 333 334 333 331 332 332 331 331 331 331 330 331 331 330 329 329 329 328 328 328
304 304 306 306 307 310 313 311 306 305 309 314 318 321 322 321 323 324 323 323 325 324 324 325 325 326 327 327 325 325 324 324 324 326 328 328 327 328 328 328 329 327 327 329 329 329 328 328 328 329 327 328 334 337 331 324 330 336 335 330 328 327 327 330 333 333 332 332 333 331 332 332 331 331 332 331 330 330 329 329 328 328 328 328 329 329 328
305 307 308 309 309 311 313 311 307 310 315 319 321 323 323 323 323 324 324 324 324 325 325 325 326 326 326 326 327 327 324 322 323 326 328 328 328 328 329 329 329 328 327 328 330 329 327 328 330 329 326 330 338 340 332 325 329 334 333 328 326 326 329 332 333 332 332 332 332 331 331 331 330 331 331 330 329 328 327 327 327 327 327 328 329 329 329
308 309 309 310 310 311 313 312 312 316 320 321 321 322 323 323 323 324 324 324 325 325 326 326 326 327 327 325 326 326 325 324 323 325 328 329 328 327 327 329 329 328 328 329 331 329 327 328 330 328 329 336 340 335 331 331 334 334 331 328 326 328 330 333 333 332 332 332 331 330 330 329 329 328 328 327 327 327 326 326 327 327 328 329 329 329 330
307 308 308 309 311 314 315 315 317 320 321 321 321 321 322 323 324 324 325 326 326 326 327 326 326 328 328 326 325 326 326 325 324 324 327 329 328 327 328 329 328 327 329 330 329 328 328 330 328 328 335 340 335 330 332 337 337 334 330 328 327 328 330 331 332 331 331 331 331 330 328 327 327 326 326 326 326 326 326 326 326 327 327 328 329 329 329
306 307 308 310 313 316 317 318 320 321 320 320 321 322 322 322 323 324 324 325 326 327 328 327 327 327 327 326 326 326 324 324 324 326 328 329 329 328 329 329 329 329 329 329 328 328 330 330 328 330 338 340 334 331 335 338 336 333 331 328 327 328 330 331 331 332 331 330 328 327 327 326 326 326 326 326 326 327 327 327 326 327 327 328 328 329 329
306 308 309 312 315 317 318 319 321 322 320 319 320 321 321 321 322 324 324 324 324 326 327 327 327 327 327 327 327 326 324 323 324 326 329 329 328 328 328 329 329 328 328 328 329 329 330 330 329 333 339 339 335 333 335 336 334 332 330 327 327 330 331 331 332 331 330 328 327 326 326 326 326 326 325 326 326 326 326 326 327 327 328 328 329 329 329
308 309 311 314 315 317 319 320 321 321 321 320 319 319 319 319 320 322 324 323 323 325 326 327 327 328 328 329 327 326 326 325 324 326 328 328 328 329 330 329 329 328 327 329 330 330 330 330 330 332 338 339 336 333 334 333 332 331 329 328 330 332 332 332 331 330 328 327 326 326 326 326 326 326 326 326 326 326 326 326 327 327 327 328 328 329 328
310 311 313 315 317 317 319 319 318 318 320 320 319 319 319 320 320 322 324 325 325 325 325 325 325 326 327 328 327 326 327 326 325 325 328 329 328 329 330 328 328 328 328 328 329 329 329 329 330 332 336 338 335 332 332 332 332 330 329 329 331 332 332 331 330 328 327 327 326 326 327 326 326 326 326 326 326 325 325 325 326 326 326 327 328 329 328
310 312 313 315 317 317 317 318 319 319 319 320 320 320 320 322 323 324 324 324 325 325 325 324 324 325 326 328 327 326 326 326 325 327 328 328 329 329 329 327 328 329 328 328 329 329 328 329 332 335 336 335 333 332 332 332 331 331 330 330 331 332 332 330 329 327 327 327 327 327 327 326 326 325 326 325 326 325 325 325 325 326 325 326 327 327 327
310 312 313 315 316 317 316 318 320 320 320 321 321 321 322 323 323 323 324 324 324 324 324 325 324 324 325 326 327 326 326 326 327 327 327 327 328 329 328 328 328 329 329 329 329 328 329 330 332 334 335 333 333 333 333 331 331 331 330 330 330 331 330 329 328 328 327 327 327 327 327 327 325 325 324 325 326 326 326 326 326 325 325 325 326 326 327
310 312 313 315 317 317 317 319 320 320 320 321 321 321 322 322 322 323 323 323 324 324 325 325 325 325 326 326 326 327 326 326 326 327 327 327 328 328 328 327 328 329 329 329 327 327 330 331 331 331 334 335 335 333 332 331 331 332 332 331 331 330 329 329 328 328 327 327 327 327 327 327 325 324 325 325 326 326 325 325 325 324 324 325 325 325 326
310 311 313 315 316 316 317 318 320 320 320 321 321 321 321 321 322 323 322 322 324 325 325 324 324 325 327 327 326 326 326 326 326 326 326 326 327 328 327 327 328 329 329 329 327 328 330 333 334 335 336 336 334 333 332 331 331 332 331 331 330 329 328 328 328 327 327 327 327 327 327 327 325 324 325 325 324 323 322 321 323 324 325 325 324 324 325
311 312 313 314 316 317 317 318 318 320 320 321 321 321 321 322 323 322 320 321 323 324 325 325 324 324 325 325 325 326 327 327 325 326 326 327 327 327 327 327 329 330 329 327 328 330 332 336 338 339 338 336 334 332 332 330 329 329 330 330 329 329 328 328 328 328 328 327 327 326 326 326 325 324 323 322 321 322 323 323 324 325 325 325 324 323 324
311 312 313 314 315 316 317 318 319 320 320 321 321 321 321 322 322 320 319 320 323 324 324 324 324 324 324 326 326 326 327 326 325 325 326 327 327 327 327 328 330 330 328 327 329 332 335 339 340 339 336 334 332 331 329 329 328 329 329 329 329 329 328 329 328 328 328 328 327 325 325 324 323 322 322 322 323 323 324 325 325 325 325 325 324 323 323
Wind_Speed
30 32 32 32 32 34 35 38 39 38 34 25 16 7 0 3 2 6 9 7 5 5 5 3 3 4 2 4 5 5 4 6 5 3 1 4 4 5 6 5 6 7 7 6 8 10 7 7 8 6 6 6 4 8 9 8 10 10 7 6 6 2 3 5 3 2 3 3 3 2 0 4 6 3 1 4 3 2 5 4 2 3 2 1 5 4 2
29 31 32 32 31 32 34 36 37 37 35 29 20 10 4 3 2 5 6 4 1 4 4 2 3 2 2 4 4 4 4 5 5 4 2 1 4 5 4 4 4 4 5 6 8 9 7 7 7 5 5 4 6 6 8 8 11 10 4 5 9 5 4 5 3 5 7 7 6 5 4 5 5 1 1 3 2 2 2 1 2 4 1 2 7 3 4
28 29 31 31 30 31 33 35 36 35 34 29 19 10 5 3 1 4 4 1 3 4 3 3 3 3 4 4 2 2 3 1 4 4 4 3 1 2 2 2 2 3 5 5 6 7 4 4 6 4 4 6 5 2 8 10 11 7 2 5 10 6 5 7 6 7 6 5 4 3 4 5 3 2 4 4 4 3 2 1 4 4 2 2 6 2 6
26 28 30 30 30 30 31 33 35 33 33 29 18 10 6 4 1 2 4 2 4 4 1 4 4 4 4 3 2 1 3 4 1 2 4 6 5 4 3 3 3 4 6 6 6 7 3 2 5 4 4 6 3 1 8 10 7 3 3 8 10 6 5 6 4 2 1 3 5 4 6 7 6 6 7 6 4 2 3 5 4 1 2 3 2 3 5
25 27 29 30 30 29 30 32 33 33 32 26 15 9 7 4 1 3 1 1 3 3 2 3 4 4 4 2 3 3 1 4 3 2 3 4 4 4 6 3 3 3 4 5 5 6 5 3 4 3 2 4 5 5 8 8 5 6 7 8 7 5 6 5 2 1 4 4 4 4 7 9 7 7 8 7 5 4 5 5 2 2 2 2 5 4 4
23 25 27 29 29 28 29 31 32 32 31 23 13 9 8 5 2 3 4 3 2 1 2 6 6 4 3 3 3 3 2 3 4 5 4 4 3 3 6 9 8 8 4 2 3 4 5 6 4 3 3 4 7 8 7 7 8 9 8 6 4 5 5 5 4 2 4 3 2 3 5 5 5 7 7 6 6 6 5 4 0 1 5 1 8 7 3
22 23 25 27 28 28 28 29 30 32 29 25 21 15 11 8 4 3 5 4 4 6 7 8 6 3 2 2 3 4 5 6 6 4 3 6 7 5 7 12 13 13 10 6 6 6 3 5 5 3 2 2 4 6 6 7 8 8 8 6 2 4 2 4 5 4 4 3 2 2 4 4 4 5 5 5 6 4 3 2 2 1 3 1 8 8 3
20 22 23 25 27 27 27 26 29 31 28 26 27 23 15 9 5 6 7 6 5 7 7 6 4 2 1 1 3 4 6 8 7 6 5 6 7 7 8 11 13 15 14 11 9 9 8 5 6 6 3 1 1 2 3 3 6 7 6 5 3 3 1 3 5 5 3 4 2 3 4 5 4 5 5 5 5 4 4 4 4 3 2 3 6 7 5
20 21 21 23 25 26 26 25 26 29 29 27 24 23 21 13 7 7 6 4 5 6 4 4 4 1 1 2 4 4 5 7 5 5 8 7 6 5 5 5 6 11 15 14 12 10 8 7 7 8 6 4 3 2 3 2 2 5 4 3 4 4 2 3 5 5 2 3 1 4 4 5 6 7 7 8 7 4 4 4 4 3 3 5 6 5 4
19 20 20 21 22 24 25 25 24 25 28 28 23 23 25 18 10 7 4 3 4 5 3 3 3 1 3 5 6 5 4 5 3 2 6 7 7 5 4 4 1 6 12 13 10 9 7 6 6 6 6 5 4 2 2 2 2 2 3 2 2 3 4 5 4 5 2 2 2 3 4 7 7 4 4 6 5 3 3 4 4 3 3 4 4 0 4
17 19 19 19 19 21 23 23 23 23 25 27 25 24 27 23 15 9 6 4 3 5 4 3 3 3 5 7 6 5 4 4 4 2 3 5 7 7 5 4 1 5 8 6 6 7 7 5 3 2 4 4 1 1 2 2 4 3 0 1 3 4 4 4 2 3 3 4 3 4 5 6 2 2 1 1 2 3 4 4 4 4 2 0 2 4 6
16 17 18 18 17 18 20 22 22 22 22 23 23 23 24 24 17 10 7 4 3 5 3 3 5 6 7 8 6 5 4 4 4 3 3 4 7 8 9 8 6 5 5 5 6 7 5 4 4 2 3 3 3 3 4 4 5 4 3 1 4 6 4 3 2 2 1 3 4 6 6 2 2 3 2 1 1 2 2 1 2 4 2 1 3 5 6
15 16 17 17 16 16 17 19 20 20 19 19 20 20 21 23 18 11 8 5 3 5 4 3 6 9 9 9 7 4 3 2 2 2 4 4 5 7 9 9 7 6 6 6 6 3 1 1 1 0 1 1 2 3 5 6 5 3 3 3 2 5 4 4 2 1 2 3 6 6 3 1 5 4 3 3 3 3 4 5 5 6 5 3 3 5 7
14 15 16 17 16 15 15 17 18 18 17 17 17 17 19 21 19 13 8 5 4 5 6 3 5 11 11 10 8 4 1 1 1 1 3 3 3 4 6 7 7 5 3 1 1 2 2 2 2 3 2 2 3 3 4 5 5 5 3 2 2 2 3 4 3 2 3 5 6 4 3 4 6 5 5 4 3 4 5 5 4 7 7 5 4 6 8
14 14 15 16 16 15 13 14 16 17 16 16 15 15 16 19 19 15 9 6 6 4 4 4 7 12 12 10 9 5 1 1 1 2 2 1 1 2 3 5 5 2 1 2 3 3 1 2 4 5 4 4 4 3 3 3 3 4 2 0 1 2 2 2 3 3 3 6 6 5 6 4 3 5 6 4 2 3 2 4 3 7 8 7 6 7 9
14 14 14 15 16 15 13 12 14 15 16 15 13 13 14 16 18 16 10 6 6 4 5 7 10 12 11 7 6 6 4 3 2 2 4 3 2 2 2 4 4 2 1 3 2 1 3 3 4 5 4 3 4 2 1 3 3 4 4 3 4 3 2 2 4 4 4 6 6 6 6 2 4 6 7 6 3 3 2 4 4 5 7 8 8 9 10
15 14 14 15 15 15 14 12 12 13 14 15 14 12 11 13 16 17 10 5 7 6 5 9 11 10 8 4 3 6 7 5 4 3 2 1 3 2 4 5 3 1 2 2 2 2 4 4 4 7 4 1 2 3 1 2 4 4 5 5 6 5 4 4 6 5 4 5 6 5 3 2 6 7 7 6 4 3 4 5 2 4 6 7 8 9 10
16 15 14 15 15 15 14 12 11 11 12 13 13 11 10 11 14 15 11 7 7 5 5 9 12 8 5 5 6 7 7 5 4 4 2 1 3 5 7 6 2 0 1 1 2 3 4 3 3 7 3 2 1 3 1 2 3 3 4 3 4 5 4 4 6 5 4 4 6 5 0 5 6 7 7 7 6 4 5 2 2 5 7 7 7 9 10
17 16 15 15 15 15 14 12 11 10 10 12 12 11 10 10 12 14 12 7 5 8 10 9 7 5 5 7 8 6 5 4 4 5 2 2 4 8 6 3 2 1 1 1 1 1 2 2 1 3 3 2 1 2 2 1 1 1 2 3 4 5 5 4 5 5 3 3 5 5 1 4 6 9 9 7 5 2 1 2 3 4 8 8 7 8 9
20 18 17 15 15 14 14 13 11 9 9 10 10 10 10 10 10 12 12 9 9 12 12 6 5 7 8 9 9 7 6 4 4 5 3 2 8 9 4 3 2 3 1 2 1 0 0 2 2 1 2 1 1 1 2 2 1 0 1 3 3 3 4 6 5 3 3 3 5 5 1 4 10 11 7 4 3 2 4 5 4 5 8 9 8 9 8
24 22 19 17 16 14 13 12 11 9 8 9 10 10 10 11 11 11 13 13 11 9 8 9 13 14 11 10 10 9 9 7 6 7 6 5 8 7 1 1 4 4 2 2 1 1 1 1 2 0 1 0 0 1 2 2 2 1 1 3 2 2 4 5 3 2 4 5 3 2 2 6 12 9 3 2 3 5 4 4 5 7 9 8 8 8 7
27 25 22 19 17 15 14 12 11 10 8 9 10 9 9 11 12 12 14 14 12 10 10 12 13 11 8 8 8 7 7 7 6 5 6 5 6 5 1 1 3 4 5 5 2 1 1 0 1 0 1 1 1 1 1 3 3 3 2 3 3 0 1 3 1 1 1 2 3 3 4 8 10 5 5 4 5 4 4 4 7 9 9 8 8 8 7
27 24 21 20 19 17 15 13 12 10 8 9 10 9 9 10 11 13 15 15 15 15 12 7 5 4 1 2 4 6 6 6 5 4 4 4 3 2 2 3 4 4 4 5 4 3 1 0 1 2 2 1 2 2 3 4 3 2 2 3 1 2 0 3 2 2 3 3 4 4 4 7 8 4 5 5 5 4 5 6 9 10 9 8 7 8 7
26 20 18 19 19 18 16 14 12 11 9 8 9 10 10 11 11 14 15 12 12 13 9 3 2 1 1 1 3 5 6 6 5 5 4 3 3 1 3 5 4 2 3 5 6 4 3 1 1 1 1 1 2 4 4 3 2 1 2 3 2 3 3 3 1 3 3 2 4 5 5 7 6 4 5 7 7 7 7 8 10 11 9 8 8 7 7
22 17 16 18 19 19 18 15 13 12 10 9 9 10 10 10 12 14 13 9 8 8 6 3 2 2 2 4 4 5 6 6 6 6 6 5 5 4 2 3 3 2 3 5 5 3 3 2 1 2 2 0 1 3 3 2 1 2 3 3 2 4 5 4 2 3 2 2 5 5 5 5 5 4 6 8 8 9 9 9 11 11 9 8 8 6 6
17 15 16 19 19 19 19 17 15 13 11 9 9 10 10 9 11 12 11 9 8 6 6 4 3 4 8 9 6 7 7 7 7 7 8 7 6 5 5 4 4 3 3 4 3 3 4 3 2 4 3 1 1 2 3 2 2 2 3 1 3 4 5 3 3 4 3 3 5 6 5 5 6 6 7 8 9 10 10 10 10 10 9 8 7 5 4
14 15 18 20 20 20 20 19 17 14 12 10 9 9 10 9 10 11 9 7 6 4 4 5 8 11 11 9 6 6 6 6 7 7 8 8 7 6 7 7 5 4 4 4 3 3 4 4 3 5 3 0 1 3 3 3 3 4 4 2 4 4 4 3 3 5 3 3 9 9 4 3 9 11 9 10 11 11 11 10 10 10 9 8 7 6 4
13 15 17 18 20 21 21 20 18 15 13 10 9 9 10 10 10 10 8 5 4 4 6 11 16 15 10 4 3 4 4 6 7 7 7 7 7 8 8 8 7 6 5 5 4 4 4 4 3 3 2 1 2 4 3 2 4 6 4 5 6 4 3 3 2 2 2 6 13 12 1 1 9 13 11 11 11 10 11 10 9 10 9 7 6 5 3
13 16 17 18 21 22 21 20 19 16 13 10 9 8 9 10 10 10 7 6 5 6 10 14 13 10 6 4 3 3 4 6 6 7 7 8 8 9 9 9 9 8 6 6 5 5 6 6 4 2 2 2 2 3 2 4 6 5 1 5 5 3 3 1 2 4 6 7 11 10 3 4 10 14 12 13 12 10 10 10 9 9 8 6 5 4 2
17 18 19 22 23 22 20 19 18 16 13 10 7 6 6 8 10 9 7 5 4 6 8 8 7 7 8 8 4 2 3 5 6 7 8 8 9 9 9 9 8 7 7 6 6 5 5 6 6 4 3 3 3 3 2 4 5 2 4 5 4 4 4 2 2 5 6 6 9 9 6 7 11 12 12 12 11 8 8 9 8 8 7 5 4 4 2
16 17 19 22 23 21 19 18 18 17 15 11 8 6 5 5 6 7 7 5 2 5 6 7 9 9 8 5 3 3 4 4 5 6 7 8 8 9 9 8 8 7 7 6 6 5 5 6 5 4 4 5 5 4 3 5 5 2 6 5 4 3 4 4 4 3 4 6 10 9 8 10 12 11 11 11 10 9 8 9 9 8 6 4 4 4 3
14 17 20 21 21 19 17 16 17 17 16 14 12 10 6 3 3 7 9 5 2 6 6 6 7 6 4 2 3 4 3 3 5 6 7 8 8 8 9 9 7 6 7 6 5 5 5 6 6 4 4 6 6 4 4 6 5 1 6 5 4 4 4 6 5 2 4 9 11 9 8 10 10 8 10 12 11 9 9 9 8 7 5 4 4 4 3
17 20 21 20 19 16 14 15 17 17 17 16 14 12 11 10 9 9 9 6 5 5 4 5 5 3 3 4 4 2 2 3 6 8 7 7 7 7 9 9 7 6 7 6 5 4 3 5 6 4 4 5 5 4 5 5 1 4 6 6 5 6 6 7 6 6 7 8 7 5 7 11 9 8 10 13 11 9 8 8 6 6 5 4 4 3 2
20 20 19 17 15 13 12 13 15 16 16 15 12 12 13 14 13 14 14 11 8 5 4 4 5 4 4 5 2 2 2 3 5 6 6 7 8 7 7 7 7 6 6 6 5 4 4 5 4 3 4 5 5 5 5 3 3 6 7 7 7 8 9 9 8 8 9 8 5 5 8 10 10 10 11 12 10 9 8 6 5 5 5 5 4 3 3
17 16 14 13 11 10 10 11 13 14 13 12 11 12 13 12 11 13 14 12 8 5 4 5 4 4 5 5 2 2 0 3 3 3 2 5 8 7 5 6 6 5 5 5 5 6 4 3 3 3 3 4 5 6 5 2 5 7 7 8 10 10 10 10 9 9 9 8 8 9 9 9 10 11 10 10 9 8 6 5 5 4 4 4 3 3 3
13 12 11 9 8 7 8 9 11 12 10 8 9 12 12 11 10 11 12 13 11 6 4 5 5 3 4 4 1 2 2 3 3 2 2 4 5 6 7 6 4 3 3 5 6 5 3 3 3 4 3 4 5 5 2 2 5 9 9 10 11 9 8 11 12 12 11 10 9 10 9 9 10 10 9 9 8 7 6 5 4 3 3 3 3 3 4
12 11 8 5 4 4 5 7 10 11 11 10 9 9 8 8 8 9 10 12 12 10 7 6 6 5 5 4 3 3 2 2 2 4 5 5 4 5 7 6 2 2 4 6 5 2 3 4 5 5 4 4 3 1 2 3 5 8 11 12 12 10 10 13 15 14 12 11 10 9 9 9 9 9 8 8 8 6 6 5 4 3 2 3 4 5 6
11 8 5 3 3 3 4 6 9 11 12 13 11 7 6 7 7 6 8 8 9 10 10 8 8 8 7 4 3 3 2 0 1 3 5 4 3 5 6 5 1 2 4 5 3 3 2 4 4 5 5 4 4 2 3 4 4 7 12 15 14 12 12 14 15 14 12 11 9 9 9 9 9 8 8 7 7 6 5 4 3 2 2 2 4 4 5
5 4 3 4 4 3 3 5 10 13 15 15 12 7 6 8 6 6 8 8 6 7 9 10 11 12 10 7 6 6 4 3 4 3 3 4 3 3 4 3 2 2 5 4 3 4 4 4 4 5 6 5 5 5 7 6 5 8 14 17 15 13 13 14 13 10 9 8 8 9 9 8 8 8 8 7 6 5 4 3 2 2 2 2 3 3 4
2 3 4 4 4 2 2 7 14 16 15 13 9 5 6 8 6 5 7 6 5 6 8 8 9 11 12 10 8 6 6 6 5 3 1 3 1 1 2 3 2 3 5 3 3 4 5 4 3 5 5 3 4 5 6 7 7 11 16 18 16 14 14 13 11 8 8 8 9 9 7 7 7 7 6 6 5 4 3 2 1 1 2 2 3 4 4
6 6 6 6 6 5 7 13 16 14 10 9 7 4 5 6 6 5 5 5 5 6 8 8 7 8 11 12 10 6 6 6 5 4 3 2 2 3 4 3 2 3 5 2 2 3 4 3 4 5 2 3 4 5 6 8 9 13 19 20 17 16 15 13 10 9 10 11 11 9 8 7 7 6 5 4 4 3 2 1 1 1 1 2 3 3 4
9 8 7 6 7 10 12 13 12 8 6 7 6 4 4 5 6 5 5 5 4 4 8 9 7 4 6 9 9 7 5 5 5 5 4 3 4 4 4 2 3 4 3 2 3 4 4 4 5 4 3 5 4 5 7 10 12 17 21 22 18 17 17 15 11 10 10 11 11 10 9 8 7 6 5 4 4 3 2 2 2 1 1 1 3 3 4
8 7 5 5 7 10 10 9 8 6 4 3 3 3 4 5 6 5 5 5 5 5 7 8 6 4 4 7 7 5 4 4 6 6 4 3 3 3 3 3 3 3 1 2 3 4 4 5 4 1 4 4 3 5 9 11 14 19 23 21 18 17 17 15 12 11 11 11 11 11 10 9 8 7 5 4 3 3 2 2 2 2 1 2 3 4 5
6 5 4 4 6 8 8 6 6 5 3 3 4 5 5 6 7 5 4 5 7 7 7 8 8 6 6 7 7 5 4 5 6 6 4 3 3 3 4 4 3 1 1 2 2 3 4 5 2 2 4 3 3 6 10 14 17 22 24 21 18 17 16 14 13 13 13 12 12 11 11 9 8 7 5 4 4 3 2 2 2 2 3 4 4 5 6
6 5 4 2 3 6 6 3 3 4 4 4 4 5 5 6 7 6 5 5 7 8 9 9 8 6 6 7 6 5 5 6 6 5 4 4 4 4 3 2 2 3 3 3 3 4 4 4 3 1 4 5 4 7 12 16 20 24 25 22 19 17 16 15 15 14 14 13 12 11 10 8 7 6 5 4 3 3 2 1 1 2 4 4 5 6 6
5 6 5 2 2 4 4 2 2 4 5 5 6 7 6 5 5 5 5 6 7 8 9 8 6 5 7 7 5 4 5 6 5 4 4 5 5 3 1 1 2 4 4 5 5 5 4 4 3 2 3 5 6 9 13 17 21 24 24 22 19 17 16 15 15 14 14 13 12 10 8 7 6 5 4 3 3 3 3 3 3 4 4 5 5 6 6
4 6 5 2 1 4 4 3 3 4 5 7 10 9 6 4 3 4 5 5 6 6 7 6 4 3 4 5 4 4 6 6 5 4 4 4 3 1 1 3 4 5 5 5 5 5 3 2 3 3 3 5 8 11 14 18 21 24 23 22 19 17 16 15 15 14 13 12 11 9 8 6 5 5 4 4 4 5 5 6 6 6 6 6 6 6 6
4 4 4 2 1 4 5 5 5 6 6 7 9 8 5 4 5 5 4 3 4 4 5 6 5 3 4 5 5 4 6 7 5 4 4 3 2 3 3 4 5 4 4 5 5 4 1 2 3 2 3 6 9 13 17 20 22 23 22 21 19 18 16 15 14 14 13 11 10 8 7 6 6 5 5 5 5 6 7 8 8 8 8 7 7 7 7
4 3 2 2 3 5 6 5 4 6 7 7 8 8 7 7 7 5 4 2 3 3 4 4 4 3 4 6 5 4 5 6 4 3 4 4 4 4 4 5 5 5 5 4 4 2 2 3 2 1 4 8 11 15 18 21 22 21 19 18 18 17 15 14 13 13 12 10 9 8 7 7 6 5 5 5 6 6 7 8 9 9 10 9 8 7 7
4 3 4 4 4 5 7 6 5 5 8 9 9 9 9 9 7 5 3 1 2 3 4 5 4 3 3 4 4 4 5 5 4 4 5 6 5 4 5 5 5 4 1 0 2 3 3 2 1 3 7 11 13 16 20 22 21 19 17 15 15 15 14 13 12 11 10 8 7 7 7 7 6 6 5 5 6 5 6 7 7 8 9 10 9 8 8
3 3 6 7 5 3 5 6 4 2 5 8 8 7 8 8 7 4 2 1 2 4 6 7 6 3 3 4 4 3 4 4 4 5 5 5 4 5 5 5 4 2 1 2 3 5 3 1 3 6 10 13 15 18 21 22 20 18 15 14 14 13 12 11 11 10 8 7 6 7 8 7 7 7 6 6 5 5 6 7 7 7 8 9 9 9 8
3 3 5 8 7 4 4 5 4 2 2 6 6 5 4 4 3 2 1 2 4 5 7 8 6 4 4 4 3 3 3 4 5 5 5 4 4 4 4 3 2 1 1 2 3 5 3 2 5 9 14 18 20 21 21 19 16 15 14 13 12 11 11 10 9 8 7 6 6 7 8 7 7 6 6 5 6 6 7 7 6 6 7 8 8 9 9
Wind_Direction
348 351 355 356 356 357 1 3 359 356 358 5 13 29 41 286 52 140 162 153 157 230 235 188 209 236 268 314 281 260 268 274 293 328 254 210 197 198 210 219 217 205 200 201 197 200 203 201 208 212 201 195 126 131 167 187 194 202 204 181 166 161 220 208 202 208 176 136 136 150 269 244 238 245 259 253 262 276 288 312 326 263 247 265 272 270 99
347 350 354 356 356 358 0 4 3 359 359 1 6 15 6 339 64 155 176 140 125 267 258 210 222 246 290 291 262 217 243 283 308 354 14 200 195 192 192 207 219 208 200 206 203 199 203 207 208 223 222 163 98 137 187 199 203 205 208 179 170 174 187 171 187 214 190 175 176 178 198 234 244 214 175 252 251 219 261 317 276 272 282 296 287 294 95
345 349 353 356 357 357 359 4 6 2 1 1 0 2 344 303 175 178 203 227 280 280 326 325 297 315 298 286 287 194 196 266 321 348 37 54 194 188 147 175 191 170 187 201 195 195 223 222 197 214 215 155 109 170 198 204 209 206 263 206 176 176 189 178 205 226 202 188 202 214 231 238 241 201 189 214 213 209 241 254 258 266 135 216 282 339 100
344 347 352 356 357 358 359 3 7 7 3 0 1 9 346 296 225 169 193 212 263 252 297 311 297 320 316 299 344 323 158 127 8 320 47 61 67 73 91 161 172 153 175 180 165 178 215 229 177 192 195 153 107 155 181 194 209 176 200 208 183 179 200 194 228 273 181 229 244 249 250 243 228 204 198 203 205 215 256 268 283 348 142 204 267 61 123
344 346 350 355 358 358 359 2 7 11 7 1 4 14 353 310 342 11 326 255 268 222 178 323 315 320 321 324 345 338 126 129 98 60 55 51 57 64 66 96 134 115 165 176 146 149 160 137 138 152 151 129 111 129 168 184 179 156 178 200 192 193 196 190 217 83 121 189 222 216 228 240 239 215 201 195 194 210 251 278 360 86 248 230 130 138 173
343 345 348 353 357 358 359 1 6 12 11 11 19 21 6 3 32 14 357 333 308 310 343 334 324 303 294 311 324 345 64 100 73 57 62 53 35 51 70 77 84 75 67 151 117 109 132 119 103 112 124 131 136 141 149 159 168 174 178 181 208 227 193 177 201 164 106 122 165 190 216 237 245 223 203 191 197 214 246 271 172 207 288 9 132 168 197
343 345 346 351 356 358 359 359 5 11 14 23 35 35 21 10 11 6 346 323 313 322 315 305 301 291 286 311 340 8 43 74 70 26 37 67 47 43 86 84 80 77 67 60 58 39 45 90 76 54 80 130 150 145 130 138 168 186 175 161 228 267 177 158 197 179 97 86 135 189 211 214 209 206 198 193 200 211 238 235 153 184 304 95 149 170 152
340 343 344 349 353 358 360 358 5 10 13 26 36 34 26 14 357 338 320 299 300 314 308 287 272 260 241 333 13 16 37 67 70 30 22 60 54 48 81 82 75 80 77 65 57 33 6 20 34 7 354 47 88 102 85 116 169 178 165 156 201 255 189 159 206 196 116 81 130 189 210 217 204 191 188 194 198 195 200 192 164 178 221 158 163 174 151
336 340 343 347 350 357 359 359 3 9 14 25 31 27 24 17 349 332 316 300 324 328 318 294 272 251 72 7 360 14 36 40 50 58 45 47 58 48 38 40 61 86 82 68 60 45 9 351 355 345 338 358 7 20 36 9 180 161 150 163 194 216 187 154 213 226 135 78 226 206 202 224 224 212 203 204 210 204 185 175 177 204 190 162 181 201 164
331 337 341 344 348 354 358 359 2 6 14 24 27 22 20 14 2 353 315 282 339 340 323 313 292 318 30 359 335 330 348 348 337 80 67 51 61 52 352 311 286 91 79 64 51 43 24 359 350 338 333 336 334 357 38 350 332 131 139 149 176 200 182 166 216 245 161 128 248 226 210 230 232 221 204 202 205 201 176 168 178 208 212 186 198 289 104
325 332 337 341 345 351 356 359 2 4 12 21 23 20 17 13 10 1 310 269 353 346 327 2 10 357 353 345 325 308 318 334 335 3 79 66 54 42 8 343 20 77 69 58 51 58 64 61 56 21 350 346 345 44 64 33 8 6 289 156 151 185 194 171 206 252 173 151 192 219 232 243 236 68 61 173 204 218 210 191 174 179 208 335 59 74 107
319 325 332 338 340 346 353 357 0 5 10 15 19 19 16 13 14 0 318 301 1 352 347 28 16 351 340 339 326 303 317 350 3 15 68 72 44 35 27 18 28 46 26 24 60 77 89 88 86 87 31 29 81 88 73 68 44 5 325 298 160 173 180 158 173 239 178 143 196 231 249 260 100 90 92 112 283 259 248 223 161 170 171 133 113 111 124
313 319 324 333 338 340 348 354 358 3 5 9 15 16 13 14 17 7 331 315 347 7 357 353 1 356 351 349 339 310 316 352 17 41 65 73 46 36 34 24 17 6 352 14 55 74 204 197 82 166 146 127 150 116 73 58 46 32 356 328 222 180 170 156 160 207 191 195 220 242 272 143 136 127 131 155 182 206 215 219 193 180 185 182 151 127 129
304 312 317 326 334 336 341 348 354 358 1 4 9 10 11 15 16 11 352 328 335 355 338 313 353 354 348 352 348 318 240 153 181 128 65 56 50 43 33 17 2 345 332 9 128 215 260 295 272 245 234 240 232 183 121 84 50 44 32 335 286 227 192 180 186 204 234 250 244 248 275 218 175 148 143 165 179 186 219 243 192 166 181 189 156 141 147
294 304 313 320 328 332 336 341 346 353 356 358 2 6 8 10 12 14 10 335 310 328 357 3 352 340 337 352 358 343 258 194 215 189 159 52 58 79 47 10 356 350 286 248 223 208 248 304 273 254 252 255 249 221 162 145 96 70 60 82 214 238 234 212 217 204 223 262 260 252 267 259 147 112 119 128 105 109 183 265 210 162 174 184 169 157 157
287 296 306 313 320 327 330 332 339 347 350 352 358 2 1 5 9 12 13 340 306 321 20 6 339 323 319 331 0 4 357 344 326 244 196 168 99 77 34 1 357 13 300 253 224 200 221 240 262 259 250 243 251 258 205 187 156 121 123 153 172 185 186 213 231 210 203 243 258 259 270 290 94 106 121 129 118 107 154 250 232 155 158 175 173 164 164
282 288 298 305 312 321 325 326 330 339 346 349 353 357 358 360 3 8 14 344 308 308 342 344 330 319 318 329 4 4 350 338 328 294 245 113 44 18 356 347 344 359 297 239 191 218 220 202 236 247 236 57 290 275 241 223 215 168 158 169 179 185 190 210 227 218 202 231 256 263 277 70 101 120 129 132 142 180 223 239 213 123 148 171 172 165 164
278 281 289 296 302 313 319 320 322 329 341 348 349 351 354 353 358 6 7 340 311 309 333 337 327 320 334 346 339 338 339 335 324 304 270 122 32 357 347 343 326 166 325 276 210 221 211 182 223 239 217 82 296 273 271 234 231 189 162 172 191 196 200 220 239 232 200 217 254 262 108 93 117 134 133 135 151 199 234 248 80 119 146 157 164 160 155
277 278 280 285 293 304 311 314 316 319 329 341 349 351 349 347 354 0 359 344 305 305 317 325 323 318 324 322 315 317 325 321 319 315 269 161 15 343 326 320 333 339 325 208 175 209 204 162 172 241 220 161 194 280 302 260 252 160 164 194 213 207 198 209 237 247 223 223 254 256 125 104 134 131 128 152 184 208 198 74 78 135 142 140 150 148 142
278 280 276 274 282 293 301 308 309 307 315 329 343 351 347 342 345 351 353 344 310 303 311 315 310 312 309 303 303 305 304 307 338 345 336 14 356 333 266 186 351 326 260 180 157 167 262 118 101 289 256 176 121 296 268 232 232 255 224 235 234 220 221 217 208 216 232 229 236 250 285 135 154 142 135 188 230 50 88 105 104 130 137 136 140 138 139
281 285 278 269 270 280 290 298 299 296 302 312 326 344 349 344 341 340 340 337 319 299 303 307 306 304 294 278 275 276 278 288 318 336 332 348 353 340 233 138 351 330 323 325 221 142 21 41 93 32 291 356 60 268 262 252 214 186 289 282 240 204 246 242 195 182 239 240 225 266 44 135 160 155 113 147 129 74 78 112 114 129 141 139 134 131 130
280 283 278 266 260 266 277 287 289 287 286 294 310 330 341 341 341 337 332 332 320 300 300 305 304 300 283 263 250 237 245 259 267 288 302 324 358 7 19 19 10 16 359 335 309 119 48 251 139 20 279 254 263 237 262 272 238 170 159 231 234 111 324 293 320 101 273 338 56 66 85 135 156 139 60 102 129 91 72 105 121 134 142 137 135 135 126
275 277 274 263 255 258 266 275 280 278 274 282 296 311 324 334 340 338 335 336 330 321 322 326 321 314 282 239 232 223 229 241 239 249 271 288 324 9 38 28 21 32 16 344 339 353 339 319 15 337 300 303 302 273 242 245 247 202 174 204 228 54 39 277 295 123 124 81 79 101 124 141 148 119 75 106 131 114 103 110 118 130 134 126 129 134 128
270 269 265 260 254 253 257 262 269 269 264 271 285 297 313 325 335 341 344 343 333 326 324 319 326 355 115 213 274 256 242 241 246 242 227 230 255 267 68 43 7 6 25 3 356 352 325 340 37 305 280 5 303 280 263 246 264 297 226 201 147 134 190 232 226 167 175 153 114 116 130 143 147 128 105 113 116 110 109 114 119 126 128 120 116 121 123
262 258 256 259 256 252 251 253 258 261 259 261 274 287 302 318 331 340 346 342 327 321 309 283 300 346 320 304 294 272 252 233 223 227 223 227 263 287 346 6 337 336 359 347 344 330 292 287 225 246 262 212 254 280 285 279 328 336 264 240 135 148 192 212 185 165 151 102 109 115 123 139 148 145 138 136 129 116 111 118 126 128 125 119 117 119 126
250 244 249 257 256 252 251 249 250 255 255 253 264 277 291 309 322 328 334 333 319 295 271 275 311 328 322 316 294 264 252 227 209 225 238 239 252 271 282 290 288 289 309 313 317 307 290 285 274 262 253 177 198 275 298 312 309 285 268 296 83 132 180 188 163 161 140 108 134 141 137 152 169 167 151 144 140 132 125 127 133 133 129 125 125 125 129
233 233 243 253 256 254 251 246 246 251 251 250 258 271 282 296 310 315 319 326 316 278 258 295 314 314 313 306 274 246 244 235 232 244 249 245 242 246 255 264 268 270 272 265 259 268 265 259 257 255 254 347 286 258 282 314 293 273 257 174 144 171 184 165 185 208 207 156 162 164 152 165 179 178 164 151 147 143 140 141 143 143 140 136 136 134 133
226 239 249 257 260 257 250 244 242 245 248 249 252 265 278 288 298 303 300 296 299 300 296 299 302 306 308 295 239 234 242 239 242 251 252 241 229 228 240 249 247 247 251 248 247 252 248 248 252 238 238 287 243 227 239 249 250 264 253 179 175 199 193 173 216 263 46 121 158 168 150 60 166 171 165 157 155 153 151 153 152 149 147 145 146 147 147
229 240 248 254 258 258 253 245 240 240 244 249 253 269 284 285 285 289 287 272 276 300 303 297 295 301 308 304 289 273 249 232 233 243 244 232 220 220 232 239 238 241 248 252 259 263 254 252 264 263 239 250 241 227 228 227 232 246 183 145 166 188 176 177 355 30 62 110 150 158 89 74 151 162 159 157 160 161 159 160 157 153 152 152 154 155 155
237 243 250 256 260 261 258 249 239 235 239 244 251 266 269 262 266 272 265 250 269 308 314 303 296 308 313 309 303 279 256 250 247 240 230 222 217 218 225 231 231 233 241 247 255 267 265 253 251 248 227 229 251 259 249 243 243 219 112 128 168 179 168 172 42 59 76 114 142 140 103 103 137 150 152 155 160 162 161 160 156 155 157 158 160 162 162
245 252 258 262 265 266 262 250 237 233 235 235 230 231 233 237 249 243 216 201 271 318 312 288 281 293 302 301 296 299 290 264 245 235 223 218 216 214 218 223 220 219 234 250 252 259 269 258 239 222 192 204 235 262 269 261 258 186 122 134 167 171 164 175 166 96 81 128 144 136 115 120 136 144 150 156 159 157 157 156 154 158 164 164 167 169 168
252 258 264 269 272 271 263 247 233 229 231 229 220 217 223 229 216 200 188 184 288 315 309 292 285 289 296 297 296 302 298 254 232 229 219 211 212 213 211 211 212 215 231 251 251 243 253 256 247 234 195 197 221 253 254 254 263 135 119 128 147 154 155 165 170 147 115 140 151 146 134 138 144 147 154 159 159 157 157 156 157 165 171 168 170 174 174
264 268 271 274 274 268 254 239 230 227 229 232 231 231 236 238 228 215 214 236 287 299 291 287 284 280 302 316 302 271 267 247 221 213 208 199 203 212 207 203 211 218 219 231 244 240 242 252 248 230 181 190 222 253 245 243 268 98 120 129 130 139 144 144 144 136 129 138 153 161 152 150 145 139 147 155 156 156 159 160 163 172 177 184 199 205 202
269 272 274 272 269 261 245 231 225 225 228 232 237 241 242 239 236 237 240 250 270 278 259 263 278 281 286 292 267 190 246 255 213 206 205 191 194 209 207 195 200 211 211 219 241 242 234 241 242 213 173 187 219 246 245 221 117 116 132 131 124 129 131 125 124 129 131 131 119 111 132 148 149 143 145 151 155 158 162 169 182 193 201 219 240 246 249
270 271 270 266 261 252 236 223 220 222 227 232 234 239 240 236 233 235 232 227 232 244 231 227 249 280 281 264 208 136 239 258 228 228 225 189 194 212 216 197 197 201 194 204 234 239 222 216 239 231 186 181 210 235 246 200 145 151 153 143 140 141 134 127 126 127 129 127 114 110 123 142 147 144 146 153 158 162 167 177 194 212 226 239 247 248 264
271 272 271 266 254 240 230 226 219 212 211 219 226 230 233 228 222 220 212 202 205 224 247 239 238 259 276 269 284 30 310 248 215 214 228 204 196 208 221 223 215 179 172 205 235 238 188 169 225 236 201 197 226 237 239 199 179 176 168 156 151 148 141 140 139 133 127 125 122 120 126 134 137 140 148 152 155 161 169 172 183 204 219 230 243 261 278
264 269 271 263 242 233 234 230 217 205 199 200 203 210 211 201 195 200 202 202 209 224 247 258 252 253 269 285 317 329 290 231 190 204 214 210 194 196 217 231 215 152 199 225 233 218 151 171 226 245 225 221 243 218 123 172 189 179 172 165 155 146 142 144 142 135 128 126 125 125 131 137 138 143 149 151 154 162 166 164 169 186 209 240 265 277 284
264 267 263 236 214 220 227 220 208 197 186 177 169 168 170 166 166 180 192 199 212 224 232 243 249 249 254 262 262 263 274 342 255 225 203 195 196 196 209 223 186 164 234 234 176 140 172 194 225 251 244 225 230 227 205 206 192 178 176 170 157 149 150 149 146 142 138 136 138 141 145 147 148 150 155 157 159 164 164 160 169 193 227 259 272 280 285
251 232 214 204 198 202 222 207 189 176 166 160 155 155 166 171 176 182 181 187 208 216 214 227 239 237 234 237 244 249 255 265 268 247 189 181 200 199 207 220 185 201 248 242 156 170 228 228 214 238 244 218 205 221 230 226 207 188 182 171 157 151 152 150 149 150 146 144 150 153 152 156 160 159 160 162 165 171 173 170 184 218 242 259 270 278 283
161 177 186 193 198 214 209 174 163 156 153 159 170 181 181 185 198 193 174 181 211 211 203 219 233 227 227 238 246 236 221 227 256 284 224 182 183 222 232 219 170 200 248 249 154 181 240 249 214 231 244 205 174 199 217 213 195 183 178 169 156 149 150 148 147 145 137 134 141 143 143 151 157 157 162 171 176 181 187 186 200 232 242 258 273 281 286
163 181 191 196 196 183 158 152 150 150 156 170 184 196 190 189 202 203 185 192 214 203 195 209 220 213 217 228 232 223 217 227 251 284 282 208 179 215 225 190 158 225 249 238 154 208 246 251 236 239 227 135 161 197 198 184 173 172 172 167 157 150 152 150 144 138 135 136 139 137 135 138 143 148 157 164 164 167 173 173 193 215 228 262 282 290 292
181 181 181 179 169 155 147 149 155 164 180 184 183 196 203 192 191 198 205 218 231 199 186 198 215 213 201 205 210 214 220 216 217 236 244 197 178 214 228 173 180 232 237 152 166 222 235 235 245 243 132 127 174 201 183 169 166 168 170 168 160 156 157 154 145 139 141 142 140 137 134 132 133 135 140 148 155 160 162 169 187 194 213 284 299 301 295
178 165 152 150 152 150 151 166 181 186 185 176 167 179 202 200 194 200 209 216 220 202 177 178 192 199 184 186 193 200 205 203 205 217 228 193 171 204 227 208 206 229 216 149 202 233 236 238 247 163 104 124 185 186 172 168 166 166 168 168 163 158 158 156 148 141 141 142 140 137 134 131 128 126 129 140 154 155 154 175 199 211 259 297 305 303 296
152 150 146 150 164 165 165 178 191 190 183 182 182 185 191 192 194 200 196 184 187 190 181 176 188 196 184 175 181 185 185 193 201 206 210 204 192 200 217 221 216 202 164 191 224 244 243 249 259 115 128 159 188 177 173 173 169 168 169 167 162 157 158 156 150 144 143 143 141 138 136 134 132 128 126 131 141 145 153 180 213 242 273 292 302 302 299
152 169 171 160 176 183 180 176 193 202 201 199 200 200 195 192 194 196 182 164 169 175 172 172 186 193 172 161 177 192 182 176 186 193 197 204 209 208 205 203 210 218 218 218 225 226 227 248 280 238 173 172 182 184 180 177 175 172 168 164 160 160 159 157 153 151 150 149 147 145 144 143 143 144 144 145 150 156 164 192 240 267 282 293 297 296 298
166 179 188 191 190 195 193 170 171 196 199 198 202 207 209 207 200 180 157 152 162 168 164 163 178 190 176 167 177 191 179 175 181 188 191 201 209 212 209 194 205 224 234 233 235 237 227 218 229 219 174 165 184 189 182 177 175 173 168 164 162 162 161 159 158 157 155 154 154 154 154 155 159 165 170 181 198 209 221 245 264 276 287 295 294 290 295
179 187 201 219 195 197 205 206 204 207 202 199 202 205 207 200 173 148 142 154 164 161 157 161 176 194 191 189 192 188 187 193 195 183 189 206 205 176 212 237 225 224 233 235 237 249 249 193 150 139 154 179 188 184 178 175 174 171 168 166 163 161 161 162 161 159 160 161 162 163 166 173 181 190 201 221 238 247 254 261 266 273 281 286 286 285 291
190 191 199 207 195 194 194 199 210 211 203 200 202 201 196 188 175 154 138 151 171 168 169 180 188 190 187 195 204 197 188 194 198 186 192 216 203 162 193 234 231 221 231 243 243 252 284 58 80 105 176 191 185 177 174 173 171 169 169 168 164 161 163 164 162 163 166 168 171 176 183 189 199 208 225 247 263 270 270 267 264 264 269 276 281 283 287
197 205 221 253 247 213 198 204 218 206 191 189 192 189 189 191 181 154 121 134 183 191 189 197 214 216 179 178 194 202 188 188 195 190 191 210 214 196 200 225 229 219 217 232 248 266 43 49 23 237 191 181 176 171 167 166 165 166 168 167 163 161 164 165 166 169 174 177 183 192 198 203 213 223 239 262 278 287 289 284 273 264 260 263 271 278 282
209 221 225 234 236 203 190 201 218 198 181 179 181 183 189 190 174 145 116 147 195 199 200 206 223 233 187 174 196 213 197 185 190 194 195 204 216 213 207 218 235 241 216 44 333 346 26 51 235 198 168 163 164 161 159 161 163 163 163 163 163 164 165 167 170 175 180 186 197 205 208 212 219 225 240 265 282 294 303 303 293 275 263 261 266 272 275
216 228 226 233 247 218 186 200 228 216 177 174 172 173 183 185 171 147 135 186 204 207 204 197 192 190 187 193 204 200 176 171 189 207 208 208 218 222 215 211 228 258 9 40 354 328 321 258 176 161 152 151 154 156 158 162 164 162 160 163 165 166 168 173 178 184 192 200 208 214 217 220 222 227 243 270 287 293 298 303 300 286 270 262 260 262 266
206 223 226 228 234 233 218 230 260 280 177 166 161 159 167 168 143 95 89 203 222 222 210 198 192 193 194 194 191 172 160 172 195 209 208 199 206 227 228 207 201 273 337 9 337 306 287 164 145 151 152 153 156 159 160 160 160 160 162 165 166 170 176 182 188 195 204 212 221 228 229 227 226 232 250 273 283 284 292 301 300 286 270 258 253 255 262